Location: Unspecified
(0.0000°N, 0.0000°E)
Time: 04:03:12
(UTC+00:00)

COSMOS 2482 - Visible Passes

Search period start: 03 June 2023 00:00
Search period end: 13 June 2023 00:00
Orbit: 1473 x 1514 km, 82.5° (Epoch: 02 June)

Date Brightness Start Highest point End Pass type
(mag) Time Alt. Az. Time Alt. Az. Time Alt. Az.
03 Jun ? 18:39:33 10° SSE 18:46:31 27° E 18:53:28 10° NE visible
03 Jun ? 20:35:04 10° SSW 20:42:54 38° W 20:50:50 10° NNW visible
04 Jun ? 19:44:56 10° S 19:53:39 82° W 20:02:26 10° N visible
05 Jun ? 18:56:08 10° SSE 19:04:24 48° E 19:12:42 10° NNE visible
05 Jun ? 20:54:47 10° SW 21:00:49 21° W 21:06:56 10° NW visible
06 Jun ? 18:09:05 10° SE 18:15:10 21° E 18:21:14 10° NE visible
06 Jun ? 20:03:18 10° SSW 20:11:33 48° W 20:19:53 10° NNW visible
07 Jun ? 19:13:34 10° S 19:22:18 82° E 19:31:06 10° N visible
08 Jun ? 18:25:10 10° SSE 18:33:04 38° E 18:40:57 10° NNE visible
08 Jun ? 20:22:32 10° SW 20:29:28 27° W 20:36:29 10° NNW visible
09 Jun ? 19:31:40 10° SSW 19:40:12 60° W 19:48:49 10° N visible
10 Jun ? 18:42:18 10° S 18:50:57 67° E 18:59:39 10° NNE visible
10 Jun ? 20:43:32 10° WSW 20:47:23 14° W 20:51:16 10° WNW visible
11 Jun ? 05:24:15 10° ENE 05:28:14 14° E 05:32:09 10° ESE visible
11 Jun ? 19:50:31 10° SSW 19:58:07 34° W 20:05:48 10° NNW visible
12 Jun ? 19:00:09 10° S 19:08:51 74° W 19:17:38 10° N visible
